Flag for Mexico Weather past 2 weeks in Oaxaca, Oaxaca, Mexico

Now
59 °F

Partly cloudy.


Feels Like: 59 °F
Forecast: 52 / 84 °F
Wind: No wind

Location: Oaxaca / Xoxocotlan

Current Time: Jul 31, 2015 at 5:28:24 AM

Latest Report: Jul 31, 2015 at 4:45 AM


Visibility: 7 mi

Pressure: 30.27 "Hg (25.14 "Hg at 1566m altitude)

Humidity: 72%

Dew point: 50 °F

Location of OaxacaLocation

Historic Weather in Oaxaca — Graph

°F

Oaxaca temperature yesterday

Maximum temperature yesterday: 82 °F (at 3:45 PM)
Minimum temperature yesterday: 55 °F (at 6:48 AM)
Average temperature yesterday: 71 °F

Past Weeks' High & Low Weather Summary

 TemperatureHumidityPressure
High84 °F (Jul 24, 4:46 PM)100% (Jul 17, 2:58 AM)30.34 "Hg (Jul 17, 2:58 AM)
Low55 °F (Jul 28, 7:45 AM)22% (Jul 24, 4:46 PM)29.69 "Hg (Jul 29, 3:45 PM)
Average69 °F65%30.10 "Hg
* Reported Jul 16 3:45 AM — Jul 31 3:45 AM, Oaxaca, Weather by CustomWeather, © 2015

Note: Actual official high and low records may vary slightly from our data, if they occured in-between our weather recording intervals... More about our weather records

Advertising

Oaxaca weather history for previous 24 hours

 ConditionsComfort  
Time TempWeatherWind HumidityBarometerVisibility
3:45 AM
Fri, Jul 31
57 °FPartly cloudy.6 mph82%29.84 "Hg7 mi
2:45 AM64 °FPartly cloudy.6 mph60%30.29 "Hg7 mi
1:46 AM64 °FPartly cloudy.8 mph64%30.31 "Hg7 mi
12:49 AM64 °FPartly cloudy.6 mph60%29.97 "Hg7 mi
11:45 PM
Thu, Jul 30
68 °FPassing clouds.6 mph46%30.34 "Hg7 mi
10:45 PM70 °FPassing clouds.No wind40%30.31 "Hg7 mi
9:45 PM72 °FPassing clouds.12 mph33%29.84 "Hg7 mi
8:45 PM72 °FBroken clouds.13 mph31%30.25 "Hg10 mi
7:45 PM73 °FBroken clouds.9 mph31%30.22 "Hg10 mi
5:47 PM79 °FPartly sunny.12 mph32%30.19 "Hg12 mi
4:45 PM81 °FBroken clouds.9 mph30%30.19 "Hg12 mi
3:45 PM82 °FBroken clouds.12 mph25%29.75 "Hg12 mi
2:45 PM81 °FPartly sunny.6 mph32%30.23 "Hg12 mi
1:46 PM79 °FPartly sunny.6 mph34%30.25 "Hg10 mi
12:42 PM75 °FPartly sunny.3 mph41%29.90 "Hg10 mi
6:48 AM55 °FPartly cloudy.No wind82%29.93 "Hg7 mi
Weather by CustomWeather, © 2015

See weather overviewHow to use our weather pages